Location: Dal�� Lhota
(48.7500°N, 14.0167°E)
Time: 01:25:23
(UTC+00:00)

Transit 2A - Pass Details

Date: 01 August 2021
Orbit: 594 x 964 km, 66.7° (Epoch: 21 September)

Event Time Altitude Azimuth Distance (km) Brightness Sun altitude
Rises 13:55:02 0° 323° (NW) 3,218 9.3 44.7°
Reaches altitude 10° 13:57:20 10° 321° (NW) 2,345 8.8 44.3°
Maximum altitude 14:02:43 71° 239° (WSW) 892 7.7 43.5°
Drops below altitude 10° 14:08:39 10° 156° (SSE) 2,569 8.8 42.6°
Sets 14:11:16 0° 154° (SSE) 3,549 9.4 42.3°
